sat.trackr.live / text

‹ back to catalog

STARLINK-34522

NORAD 64492 · 2025-133W

PAYLOAD ACTIVE UNKNOWN

§ Identity

Operator
Country
US
Launch date
2025-06-23
Launch site
AFETR
Launch vehicle
Mass (kg)
RCS (m²)

Purposes: comms

External: N2YO · Heavens-Above · Gunter

§ Orbital elements

Epoch: 2026-05-25T04:31:57.975744Z

Period
93.79 min
Inclination
53.1598°
Eccentricity
0.0001287
Mean motion
15.35412396 rev/d
Perigee alt
458.8 km
Apogee alt
460.6 km
Semi-major
6,837.8 km
B*
7.0480e-4
RAAN
119.1312°
Arg perigee
81.6918°
Mean anomaly
278.4231°
Rev number
5,293

§ Raw data

STARLINK-345221 64492U 25133W   26145.18886546  .00024293  00000+0  70480-3 0  99942 64492  53.1598 119.1312 0001287  81.6918 278.4231 15.35412396 52932

JSON: /api/v1/satellites/64492 · /tle

For live sub-satellite position, see the globe view (requires WebGL).

§ Visibility from observer

Set your observer location to see the next 7 days of passes ≥ 10°. The values pass through the URL so the page stays shareable.

No JS? Fill the form by hand. The geolocation button needs JavaScript.